Location: Aetna Mine
(37.6183°N, 107.6045°W)
Time: 10:31:13
(UTC+00:00)

ERS-2 - Pass Details

Date: 18 September 2020
Orbit: 492 x 499 km, 98.6° (Epoch: 20 October)

Event Time Altitude Azimuth Distance (km) Brightness Sun altitude
Rises 12:20:03 0° 204° (SSW) 2,575 5.4 -7.8°
Reaches altitude 10° 12:22:49 10° 227° (SW) 1,698 4.3 -7.2°
Maximum altitude 12:25:02 15° 265° (W) 1,400 3.7 -6.8°
Drops below altitude 10° 12:27:15 10° 303° (WNW) 1,706 4.4 -6.4°
Sets 12:30:03 0° 326° (NW) 2,595 5.5 -5.8°
